www.pogodaiklimat.ru

Погода и климат >> Архив погоды >> Россия >> Якутия >> Верхоянск


АРХИВ ПОГОДЫ в Верхоянске

Время (UTC), дата Ветер
(напр.,м/с)
 
Видим.   Явления Облачность Т
(С)
Тd
(С)
f
(%)
Тe
(С)
Тes
(С)
Комфортность P
(гПа)
Po
(гПа)
Тmin
(С)
Tmax
(С)
R
(мм)
R24
(мм)
S
(см)
09 10.12 СВ 1 20 км 3/0
[Ci fib]
-42.8 -45.6 74 -48 -48 опасность
обморожения
1047.5 1026.5 -41.4
12 10.12 СВ 1 20 км 3/0
[Ci fib]
-45.0 -47.7 74 -51 -51 опасность
обморожения
1048.4 1027.2
15 10.12 штиль 0 20 км 3/0
[Ci fib]
-46.2 -48.9 74 -46 -46 опасность
обморожения
1048.8 1027.5
18 10.12 штиль 0 20 км ясно -48.1 -50.9 73 -48 -48 опасность
обморожения
1050.0 1028.4
21 10.12 штиль 0 20 км ясно -49.0 -51.7 73 -49 -49 опасность
обморожения
1050.9 1029.2 -49.0 30
00 11.12 штиль 0 20 км ясно -49.6 -52.5 71 -50 -50 опасность
обморожения
1051.7 1029.9 -49.9
03 11.12 штиль 0 20 км дым ясно -50.0 -52.9 71 -50 -50 опасность
обморожения
1052.1 1030.3
06 11.12 штиль 0 20 км ясно -50.1 -53.0 71 -50 -50 опасность
обморожения
1051.8 1030.0
09 11.12 штиль 0 20 км ясно -51.0 -53.8 72 -51 -51 опасность
обморожения
1052.1 1030.2 -49.6
12 11.12 штиль 0 20 км ясно -51.0 -53.7 73 -51 -51 опасность
обморожения
1051.6 1029.7
15 11.12 штиль 0 20 км ясно -51.1 -53.7 74 -51 -51 опасность
обморожения
1050.9 1029.0
18 11.12 штиль 0 20 км ясно -51.5 -55.2 64 -52 -52 опасность
обморожения
1050.5 1028.6
21 11.12 ЮЗ 1 20 км ясно -51.5 -55.2 64 -58 -58 опасность
обморожения
1050.4 1028.5 -52.0 30
00 12.12 штиль 0 10 км дым ясно -52.1 -54.9 72 -52 -52 опасность
обморожения
1049.8 1027.9 -52.2
03 12.12 ЮЗ 2 20 км дым ясно -51.4 -54.1 73 -62 -62 опасность
обморожения
1049.4 1027.5
06 12.12 З 1 10 км дым ясно -51.3 -54.1 72 -58 -58 опасность
обморожения
1049.4 1027.5
09 12.12 штиль 0 10 км дым ясно -52.3 -55.0 72 -52 -52 опасность
обморожения
1049.6 1027.7 -51.3
12 12.12 З 2 20 км ясно -51.6 -54.4 72 -63 -63 опасность
обморожения
1049.5 1027.6
15 12.12 З 1 20 км ясно -51.6 -54.4 72 -58 -58 опасность
обморожения
1049.0 1027.2
18 12.12 ЮЗ 1 20 км ясно -52.0 -54.8 72 -59 -59 опасность
обморожения
1048.9 1027.1
21 12.12 З 1 20 км ясно -52.0 -54.8 72 -59 -59 опасность
обморожения
1048.5 1026.7 -52.4 30
00 13.12 З 1 20 км ясно -52.4 -55.1 72 -59 -59 опасность
обморожения
1048.0 1026.2 -52.5
03 13.12 ЮЗ 1 20 км дым ясно -53.1 -55.9 71 -60 -60 опасность
обморожения
1047.3 1025.4
06 13.12 З 1 10 км дым ясно -52.9 -55.7 71 -60 -60 опасность
обморожения
1047.2 1025.3
09 13.12 З 1 20 км ясно -52.9 -55.7 71 -60 -60 опасность
обморожения
1046.7 1024.8 -52.4
12 13.12 З 1 20 км ясно -53.0 -55.8 71 -60 -60 опасность
обморожения
1046.2 1024.3
15 13.12 штиль 0 20 км ясно -53.3 -56.1 71 -53 -53 опасность
обморожения
1045.2 1023.3
18 13.12 ЮЗ 2 20 км ясно -53.5 -56.4 70 -65 -65 опасность
обморожения
1045.0 1023.0
21 13.12 З 1 20 км ясно -52.8 -55.6 71 -59 -59 опасность
обморожения
1044.2 1022.4 -53.6 30
00 14.12 З 1 20 км ясно -52.4 -55.2 71 -59 -59 опасность
обморожения
1043.8 1022.0 -53.1
03 14.12 штиль 0 20 км дым ясно -52.4 -55.2 71 -52 -52 опасность
обморожения
1043.2 1021.6
06 14.12 З 1 20 км дым ясно -50.6 -53.7 69 -57 -57 опасность
обморожения
1042.8 1021.2
09 14.12 ЮЗ 1 20 км ясно -49.9 -53.7 64 -56 -56 опасность
обморожения
1043.0 1021.4 -49.9
12 14.12 ЮЗ 1 20 км ясно -50.0 -52.7 73 -56 -56 опасность
обморожения
1043.1 1021.5
15 14.12 штиль 0 20 км ясно -49.8 -52.5 73 -50 -50 опасность
обморожения
1042.7 1021.1
18 14.12 ЮЗ 1 20 км ясно -50.1 -52.8 73 -56 -56 опасность
обморожения
1042.4 1020.8
21 14.12 штиль 0 20 км ясно -50.6 -53.3 73 -51 -51 опасность
обморожения
1041.6 1020.0 -50.6 30
00 15.12 штиль 0 20 км 3/0
[Ci fib]
-49.6 -52.5 71 -50 -50 опасность
обморожения
1041.0 1019.4 -50.7
03 15.12 З 1 20 км дым 10/0
[Ci fib]
-48.8 -51.6 72 -55 -55 опасность
обморожения
1039.5 1018.0
06 15.12 ЮЗ 2 20 км дым 10/0
[Ci fib]
-47.7 -50.6 72 -58 -58 опасность
обморожения
1037.9 1016.6
09 15.12 ЮЗ 1 10 км слабый снег 10/0
[Cs]
-46.3 -49.2 72 -52 -52 опасность
обморожения
1036.7 1015.6 -46.3 0.0
12 15.12 ЮЗ 1 10 км слабый снег 10/0
[Cs]
-44.5 -47.6 71 -50 -50 опасность
обморожения
1034.9 1014.0
15 15.12 ЮЗ 1 10 км слабый снег 10/0
[Cs]
-43.4 -46.9 68 -49 -49 опасность
обморожения
1033.5 1012.7
18 15.12 штиль 0 10 км слабый снег 10/0
[Cs]
-42.2 -45.6 69 -42 -42 опасность
обморожения
1032.0 1011.4
21 15.12 штиль 0 10 км слабый снег 10/0
[As op]
-40.6 -43.3 75 -41 -41 опасность
обморожения
1030.7 1010.2 -46.4 0.3 30
00 16.12 СВ 1 10 км слабый снег 10/0
[As op]
-38.9 -41.8 74 -44 -44 опасность
обморожения
1029.4 1009.0
03 16.12 СВ 1 50 км {снег} 9/0
[Ac trans Cs]
-38.4 -41.2 75 -43 -43 опасность
обморожения
1028.8 1008.5
06 16.12 В 1 20 км {снег} 6/0
[Ac trans Ci fib]
-40.0 -42.9 74 -45 -45 опасность
обморожения
1028.8 1008.3
09 16.12 штиль 0 20 км 3/0
[Ac trans Ci fib]
-42.9 -45.7 74 -43 -43 опасность
обморожения
1029.5 1008.8 -38.4 0.3
12 16.12 штиль 0 20 км ясно -44.3 -47.1 73 -44 -44 опасность
обморожения
1029.9 1009.1
15 16.12 ЮЗ 1 20 км 8/0
[Ci fib]
-43.2 -46.0 74 -49 -49 опасность
обморожения
1029.9 1009.2
18 16.12 ЮЗ 1 20 км 1/0
[Ci fib]
-44.1 -46.9 73 -50 -50 опасность
обморожения
1029.7 1008.9
21 16.12 штиль 0 20 км ясно -45.4 -48.2 73 -45 -45 опасность
обморожения
1029.8 1008.9 -45.4 30
00 17.12 штиль 0 20 км ясно -46.4 -49.1 74 -46 -46 опасность
обморожения
1029.6 1008.6 -46.4
03 17.12 СВ 1 20 км дым 1/0
[Ci fib]
-47.6 -50.4 73 -54 -54 опасность
обморожения
1029.6 1008.4
06 17.12 штиль 0 10 км дым ясно -48.6 -51.3 73 -49 -49 опасность
обморожения
1029.6 1008.3

 

Местоположение метеостанции Верхоянск (Якутия, Россия): широта 67.57 долгота 133.40 высота над уровнем моря 136 м.

В архиве по умолчанию представлена погода в Верхоянске за последнюю неделю. Архивные данные за месяц целиком и за предыдущие месяцы, начиная с января 2011 года, Вы можете получить, выбрав интересующий диапазон дат из раскрывающегося списка и нажав кнопку "Ввод!".

Внимание! Время в таблицах - всемирное. Для получения местного времени необходимо прибавить поправку, которая в Верхоянске равна 10 ч.

Смотрите также архив погоды в соседних городах и на ближайших метеорологических станциях:

Погода в Батагае (Якутия, Россия) (52 км)
Погода в Екюччю (Якутия, Россия) (118 км)
Погода в Батагай-Алыте (Якутия, Россия) (129 км)
Погода в Усть-Чарках (Якутия, Россия) (162 км)
Погода в Иэме (Якутия, Россия) (274 км)
Погода в Усть-Куйге (Якутия, Россия) (284 км)
Погода в Себян-Кюеле (Якутия, Россия) (294 км)
Погода в Депутатском (Якутия, Россия) (329 км)
Погода в Юбилейной (Якутия, Россия) (373 км)
Погода в Джарджане (Якутия, Россия) (409 км)

Пояснения к столбцам:

Ветер - указаны скорость ветра в м/с - средняя за 10 мин, порывы в срок и между сроками (в фигурных скобках) и направление, откуда дует ветер: С - северный, СВ - северо-восточный, В - восточный, ЮВ - юго-восточный, Ю - южный, ЮЗ - юго-западный, З - западный, СЗ - северо-западный.
Видимость - горизонтальная дальность видимости в метрах или километрах. При видимости от 1 до 10 км при отсутствии осадков обычно наблюдается дымка, при ухудшении видимости до 1 км и менее - туман. В сухую погоду видимость может ухудшаться дымом, пылью или мглою.
Явления - указаны атмосферные явления, наблюдавшиеся в срок или в последний час перед сроком; фигурными скобками обозначены явления, наблюдавшиеся между сроками (за 1-3 часа до срока); квадратными скобками обозначены град или гололедные отложения с указанием их диаметра в мм.
Облачность - указаны через наклонную черту общая и нижняя облачность в баллах и высота нижней границы облаков в метрах; квадратными скобками обозначены формы облаков: Ci - перистые, Cs - перисто-слоистые, Cc - перисто-кучевые, Ac - высококучевые, As - высокослоистые, Sc - слоисто-кучевые, Ns - слоисто-дождевые, Cu - кучевые, Cb - кучево-дождевые. Подробнее классификацию облаков см. в Атласе облаков (PDF).
T - Температура воздуха - температура, измеренная на высоте 2 м над землей.
Td - Температура точки росы - температура, при понижении до которой содержащийся в воздухе водяной пар достигнет насыщения.
f - Относительная влажность воздуха - влажноcть воздуха, измеренная на высоте 2 м над землей.
Te - Эффективная температура - температура, которую ощущает одетый по сезону человек в тени. Характеристика душности погоды. При расчете учитывается влияние влажности воздуха и скорости ветра на теплоощущения человека.
Tes - Эффективная температура на солнце - температура, которую ощущает человек, с поправкой на солнечный нагрев. Характеристика знойности погоды. Зависит от высоты солнца над горизонтом, облачности и скорости ветра. Ночью, в пасмурную погоду, а также при ветре 12 м/с и более поправка равна нулю.
P - Атмосферное давление - приведенное к уровню моря атмосферное давление.
Po - Атмосферное давление - измеренное на уровне метеостанции атмосферное давление.
Tmin - Минимальная температура - минимум температуры воздуха на высоте 2 м над землей.
Tmax - Максимальная температура - максимум температуры воздуха на высоте 2 м над землей.
R - Количество осадков - Количество выпавших осадков за период времени, мм. При наведении курсора мыши на число - период времени, за который выпало указанное количество осадков.
R24 - Количество осадков - Количество выпавших осадков за 24 часа, мм.
S - Снежный покров - Высота снежного покрова, см. При наведении курсора мыши на число - состояние снежного покрова и степень покрытия местности в баллах.